< < Back
Terminal Aerodrome Forecast


Current Version              Previous Versions:   1  2  3  4  5  6  7  8  9  

Terminal Aerodrome Forecast

062
FTUS42 KILM 310600 CCA
TAFILM
TAF COR
KILM 310600Z 3106/3124 03007KT P6SM SCT040 BKN100
     FM311400 01011KT P6SM BKN040
     FM311900 35008KT P6SM SCT040=



Latest METAR

899
SAUS70 KWBC 311000 RRF
MTRILM
METAR KILM 310953Z 03008KT 10SM CLR 11/09 A2989 RMK AO2 SLP119
T01110089


USA.gov is the U.S. government's official web portal to all federal, state and local government web resources and services.